Date,TemperatureHighF,TemperatureAvgF,TemperatureLowF,DewpointHighF,DewpointAvgF,DewpointLowF,HumidityHigh,HumidityAvg,HumidityLow,PressureMaxIn,PressureMinIn,WindSpeedMaxMPH,WindSpeedAvgMPH,GustSpeedMaxMPH,PrecipitationSumIn
2012-1-2,53.6,48.4,40.4,32.0,24.7,17.2,50,40,24,30.15,30.00,21,9,22,0.00
2012-1-3,40.4,34.3,27.3,23.7,14.0,9.4,84,44,31,30.38,30.07,19,8,27,0.00
2012-1-4,45.9,37.1,26.0,34.9,23.8,15.6,81,59,35,30.45,30.23,10,2,14,0.00
2012-1-5,60.6,47.2,37.9,39.7,32.6,21.2,92,59,37,30.24,30.07,15,5,17,0.00
2012-1-6,62.2,49.8,36.8,50.7,43.6,35.1,97,81,51,30.20,30.08,9,1,15,0.00
2012-1-7,67.9,54.9,45.5,54.8,49.9,43.4,97,84,61,30.16,30.05,11,2,15,0.00
2012-1-8,70.5,57.2,48.9,59.4,53.5,48.1,98,88,66,30.25,30.14,7,1,9,0.01
2012-1-9,69.9,58.1,49.6,59.6,54.4,48.8,98,88,68,30.23,30.09,10,1,11,0.00
2012-1-10,67.3,58.3,50.5,59.4,54.9,49.7,98,89,73,30.10,29.96,12,2,15,0.00
2012-1-11,66.1,60.3,55.3,62.1,57.4,48.9,97,90,76,29.96,29.62,19,5,27,0.18
2012-1-12,62.5,55.8,47.9,57.0,50.0,44.4,89,81,63,29.86,29.70,17,6,31,0.00
2012-1-13,59.6,43.9,36.6,48.3,26.7,21.1,69,51,34,30.17,29.78,23,10,28,0.00
2012-1-14,51.5,42.7,34.0,33.1,23.9,16.5,75,49,28,30.32,30.17,15,7,20,0.00
2012-1-15,55.3,46.3,36.9,34.7,30.9,27.4,87,57,35,30.53,30.23,17,5,20,0.00
2012-1-16,55.5,47.7,36.3,47.6,40.2,33.7,94,77,51,30.58,30.38,17,4,18,0.00
2012-1-17,60.9,54.6,48.9,55.3,51.6,46.2,94,90,76,30.38,30.06,13,1,15,0.00
2012-1-18,65.5,56.7,45.7,58.7,49.8,28.4,97,81,25,30.06,29.95,11,3,17,0.07
2012-1-19,55.0,45.5,38.0,45.1,40.2,33.9,97,83,60,30.22,30.05,8,2,11,0.00
2012-1-20,63.2,54.6,42.5,58.0,48.8,39.1,99,82,45,30.20,30.11,9,2,14,0.00
2012-1-21,63.7,59.8,56.6,57.6,56.0,53.4,97,88,79,30.11,29.97,13,3,23,0.16
2012-1-22,57.1,52.3,46.7,56.4,50.9,44.9,98,95,91,30.27,30.06,17,6,20,0.01
2012-1-23,63.9,54.9,46.0,61.5,53.9,45.2,99,97,89,30.24,30.05,11,4,13,0.00
2012-1-24,68.6,60.3,52.3,64.1,58.7,51.8,99,95,84,30.22,30.06,6,1,10,0.01
2012-1-25,66.1,56.4,46.1,58.3,52.9,45.5,99,89,68,30.29,30.16,11,3,14,0.01
2012-1-26,71.0,63.8,58.2,64.8,61.3,56.5,99,92,78,30.16,29.88,17,6,19,0.00
2012-1-27,67.2,62.3,49.3,62.6,54.7,45.5,97,78,49,30.06,29.76,30,7,31,0.01
2012-1-28,66.3,52.8,42.4,47.0,42.8,34.4,98,73,31,30.19,30.05,13,3,17,0.00
2012-1-29,58.6,48.9,38.9,46.9,35.7,20.8,97,64,23,30.39,30.19,15,4,19,0.00
2012-1-30,61.4,47.6,34.3,41.2,33.5,19.3,97,65,20,30.49,30.36,12,2,16,0.00
2012-1-31,65.3,50.6,36.2,49.2,41.9,26.4,98,77,24,30.46,30.34,10,1,12,0.00
2012-2-1,69.3,54.5,45.4,57.5,50.1,44.5,97,87,62,30.34,30.20,10,1,15,0.01
2012-2-2,75.5,66.1,54.5,59.4,53.3,49.2,87,66,42,30.25,30.07,17,4,20,0.00
2012-2-3,61.2,56.3,52.7,52.6,45.6,34.7,84,68,44,30.42,30.25,21,9,27,0.00
2012-2-4,69.7,61.4,54.0,59.0,55.3,50.1,92,81,65,30.34,30.09,18,4,18,0.00
2012-2-5,76.4,64.6,55.9,63.1,59.2,51.8,96,83,56,30.13,29.96,20,4,25,0.00
2012-2-6,55.7,52.4,49.6,52.0,47.1,43.4,90,82,74,30.22,30.12,19,8,23,0.00
2012-2-14,57.1,55.4,52.9,53.0,50.8,45.2,92,85,74,30.12,30.05,8,2,9,0.03
2012-2-15,55.0,53.0,48.0,53.0,51.4,47.2,98,94,92,30.24,30.09,1,0,2,0.00
2012-2-16,66.7,59.3,48.4,64.0,57.5,47.3,99,94,84,30.23,30.01,6,1,9,0.01
2012-2-17,64.8,58.7,49.7,60.2,54.0,48.3,98,85,63,30.11,30.00,13,4,16,0.01
2012-2-18,66.3,57.0,47.9,56.6,52.2,46.8,97,85,64,30.09,29.88,13,5,16,0.49
2012-2-19,69.2,59.7,46.0,65.0,56.8,42.7,99,91,67,29.89,29.56,20,7,31,1.29
2012-2-20,54.5,45.7,39.8,43.4,37.8,32.1,94,75,43,30.32,29.88,18,6,24,0.00
2012-2-21,59.5,50.4,42.7,55.1,48.0,38.8,95,92,83,30.32,30.09,6,1,8,0.00
2012-2-22,67.5,58.2,50.4,59.2,54.9,49.6,98,89,67,30.10,29.75,15,3,21,0.01
2012-2-23,71.2,64.0,59.7,65.7,61.2,58.8,99,91,78,29.82,29.72,13,3,18,0.00
2012-2-24,69.7,64.7,58.3,66.4,60.2,39.3,95,86,50,29.95,29.70,22,6,27,0.07
2012-2-25,58.2,51.5,41.9,40.1,29.3,17.1,89,45,21,30.33,29.95,19,7,24,0.00
2012-2-26,55.9,48.4,40.1,46.8,38.9,30.3,95,71,55,30.49,30.32,18,7,19,0.00
2012-2-27,64.7,59.9,54.0,62.6,57.5,47.0,98,92,77,30.40,30.31,10,2,13,0.09
2012-2-28,67.5,59.6,54.3,58.8,53.3,40.1,98,82,37,30.37,30.29,22,7,25,0.00
2012-2-29,71.6,64.0,56.6,66.9,61.2,54.8,98,91,79,30.29,30.00,17,3,20,0.00
2012-3-1,64.8,63.2,61.7,62.7,61.6,60.3,96,95,92,30.02,29.91,9,2,12,0.00
2012-3-4,57.5,51.6,46.0,36.5,27.8,21.5,69,42,25,30.16,29.91,30,8,38,1.49
2012-3-5,67.8,56.9,41.9,40.3,33.4,22.2,90,44,19,30.46,30.15,21,7,35,0.00
2012-3-6,53.8,47.0,43.0,38.5,29.9,24.1,62,51,43,30.63,30.45,15,8,27,0.00
2012-3-7,66.3,60.6,56.7,56.2,55.4,54.1,93,83,65,30.48,30.41,15,4,16,0.00
2012-3-8,73.3,64.5,55.7,63.3,59.1,54.1,96,83,61,30.41,30.18,13,4,15,0.00
2012-3-9,73.9,65.3,59.5,65.2,61.5,47.1,97,88,63,30.25,30.10,12,3,17,0.07
2012-3-10,62.8,55.8,47.1,50.5,44.9,36.1,89,68,38,30.44,30.25,18,8,22,0.00
2012-3-11,65.3,57.9,50.3,56.4,51.8,47.2,91,80,71,30.50,30.41,19,8,23,0.00
2012-3-12,69.5,61.3,55.9,57.0,55.2,53.2,95,82,58,30.44,30.31,11,4,13,0.00
2012-3-13,72.6,65.7,59.3,61.7,60.0,57.8,96,82,63,30.31,30.20,9,2,12,0.04
2012-3-14,75.5,68.0,60.2,66.2,62.3,58.9,96,82,71,30.26,30.18,10,3,12,0.00
2012-3-15,73.2,62.6,57.8,66.3,60.6,57.0,98,93,76,30.31,30.23,5,1,8,0.00
2012-3-18,77.8,75.1,71.2,65.8,63.7,61.0,81,68,59,30.30,30.20,12,4,13,0.00
2012-3-27,62.6,60.9,59.5,56.1,53.1,50.1,81,76,64,30.27,30.25,13,7,17,0.17
2012-3-28,75.5,68.5,60.7,66.9,62.4,56.2,95,81,69,30.27,30.02,12,4,17,0.00
2012-3-29,84.5,72.8,67.5,66.5,63.8,56.8,91,76,39,30.04,29.88,12,3,16,0.00
2012-3-30,81.7,71.4,63.3,66.4,62.1,57.5,93,74,47,30.02,29.91,13,3,16,0.00
2012-3-31,76.5,70.6,67.3,68.0,66.4,63.6,97,87,66,29.95,29.77,16,4,19,0.11
2012-4-1,74.1,67.0,63.1,66.1,63.7,60.8,98,89,65,29.89,29.77,15,4,16,0.02
2012-4-2,89.3,75.1,67.7,68.1,64.7,57.2,94,74,34,29.91,29.74,17,4,19,0.00
2012-4-3,75.4,71.3,68.6,69.3,67.2,64.1,97,87,71,29.99,29.89,16,8,20,0.00
2012-4-4,79.2,71.7,65.0,69.8,66.8,60.2,98,85,65,29.92,29.70,17,4,26,0.36
2012-4-5,79.2,71.9,65.3,69.8,66.4,63.8,97,83,67,29.75,29.63,25,5,49,0.33
2012-4-6,66.3,57.6,50.6,65.1,53.6,45.0,97,87,59,30.08,29.67,20,7,23,0.27
2012-4-7,65.9,58.4,47.0,52.0,43.7,31.8,96,62,29,30.26,30.08,14,4,17,0.00
2012-4-8,74.5,65.5,56.7,59.6,54.3,49.7,86,68,47,30.22,30.04,12,4,17,0.00
2012-4-9,72.9,66.9,60.4,61.8,52.3,39.2,81,62,33,30.11,29.97,18,5,22,0.00
2012-4-10,74.9,67.5,59.0,62.3,53.3,39.2,89,63,30,30.06,29.90,14,4,17,0.00
2012-4-11,70.7,64.8,54.9,57.7,40.2,26.8,72,44,20,30.05,29.91,17,6,21,0.00
2012-4-12,61.8,54.6,47.1,48.2,38.5,29.5,93,56,35,30.24,30.05,21,8,33,0.00
2012-4-13,67.0,59.5,49.7,52.9,45.9,32.3,96,65,29,30.27,30.15,17,4,20,0.00
2012-4-14,72.1,64.9,54.7,62.9,57.5,48.9,93,78,66,30.32,30.24,15,5,19,0.00
2012-4-15,75.7,70.4,65.7,63.8,62.0,60.1,89,76,60,30.29,30.21,12,4,17,0.00
2012-4-16,78.0,71.6,66.6,66.6,63.7,58.0,88,77,52,30.27,30.17,14,4,18,0.00
2012-4-17,78.2,72.2,66.3,68.8,65.6,63.1,96,81,65,30.22,30.09,14,4,19,0.00
2012-4-18,76.7,71.2,65.4,67.8,66.0,63.8,97,84,70,30.12,29.98,12,4,17,0.01
2012-4-19,66.8,64.8,63.0,65.2,63.6,62.1,97,96,94,30.03,29.97,13,4,14,0.09
2012-4-25,69.2,69.0,68.9,64.3,63.4,61.3,85,82,76,29.98,29.93,13,5,16,0.00
2012-4-26,83.0,71.6,64.7,66.8,61.7,54.9,88,72,42,30.01,29.90,16,5,24,0.00
2012-4-27,78.9,72.3,66.2,67.7,64.7,60.8,88,78,61,30.07,29.97,19,4,19,0.00
2012-4-28,82.3,74.3,67.8,69.9,66.5,60.1,94,78,49,30.11,30.03,10,3,13,0.00
2012-4-29,79.4,73.7,66.5,71.6,68.8,65.3,97,85,73,30.16,30.09,11,3,14,0.00
2012-4-30,77.4,73.0,67.1,71.0,69.0,66.2,98,88,73,30.22,30.13,14,4,16,0.01
2012-5-1,79.0,74.4,67.9,70.8,68.9,66.8,98,84,67,30.20,30.11,13,4,16,0.00
2012-5-2,81.1,75.2,70.3,70.1,68.9,66.5,93,81,64,30.19,30.09,15,4,17,0.00
2012-5-3,81.2,75.0,68.1,71.9,68.9,66.7,97,82,65,30.17,30.09,13,3,15,0.00
2012-5-4,80.6,74.8,70.6,73.2,70.3,68.7,96,86,75,30.12,30.00,10,2,13,0.00
2012-5-5,90.3,82.6,77.8,74.0,72.1,68.0,87,72,48,29.94,29.81,16,6,18,0.00
2012-5-6,81.6,75.4,69.1,72.7,69.2,66.8,95,81,62,29.97,29.84,16,6,21,0.03
2012-5-7,77.7,73.3,70.7,70.1,68.4,66.7,89,85,75,30.01,29.92,20,8,22,0.00
2012-5-8,75.4,73.1,70.4,68.0,66.2,63.7,83,79,67,29.97,29.92,14,7,17,0.00
2012-5-9,77.9,72.8,66.0,73.0,69.9,64.6,97,91,80,29.84,29.69,13,4,17,1.03
2012-5-10,78.1,69.5,61.4,66.5,58.8,49.6,97,72,38,29.94,29.73,13,4,15,0.01
2012-5-11,75.5,70.4,62.8,65.4,62.5,52.1,96,77,44,30.21,29.94,20,5,22,0.00
2012-5-12,71.8,70.9,68.3,64.1,62.2,61.4,84,74,71,30.21,30.19,6,3,7,0.00
2012-5-13,76.1,73.4,69.8,68.4,65.8,63.5,88,77,70,30.21,30.09,17,7,21,0.02
2012-5-14,79.9,74.8,70.6,71.9,69.4,65.1,93,83,72,30.10,29.94,16,6,18,0.06
2012-5-15,80.7,75.6,71.5,72.7,70.9,68.7,92,86,73,30.01,29.91,14,4,18,0.00
2012-5-16,80.7,75.3,72.9,72.6,71.0,67.2,94,87,64,29.97,29.92,7,2,9,0.00
2012-5-20,72.3,71.0,69.9,66.7,65.9,64.3,86,84,76,30.00,29.98,10,7,15,0.05
2012-5-21,80.8,72.1,66.1,70.7,67.3,63.4,96,86,56,30.00,29.89,13,5,15,0.13
2012-5-22,75.3,72.0,69.8,71.6,69.3,68.1,95,91,85,29.92,29.85,8,1,9,0.00
2012-5-23,80.2,75.1,67.4,73.0,68.9,62.1,92,81,70,29.92,29.83,17,5,20,0.02
2012-5-24,83.6,77.5,72.4,75.4,72.9,68.6,97,86,63,30.00,29.90,17,4,20,0.00
2012-5-25,85.3,76.6,71.0,73.5,71.6,67.5,99,86,57,30.07,29.97,15,5,19,0.00
2012-5-26,86.6,78.6,71.1,72.4,69.9,65.5,96,76,50,30.07,29.97,20,6,25,0.00
2012-5-27,81.4,77.6,73.1,74.6,71.8,68.4,91,82,76,29.99,29.93,27,13,33,0.11
2012-5-28,80.0,77.4,72.5,75.2,73.2,70.3,94,87,78,30.00,29.93,21,12,32,0.86
2012-5-30,86.6,78.3,70.6,74.5,70.0,67.2,97,77,54,29.87,29.56,20,7,22,0.56
2012-5-31,84.6,78.4,71.9,75.4,72.5,69.5,95,83,65,29.89,29.84,14,4,15,0.00
2012-6-1,83.4,78.6,74.2,76.2,73.5,68.9,93,85,76,29.88,29.76,17,5,24,0.09
2012-6-2,80.5,75.6,72.3,74.8,70.8,63.5,94,86,57,29.85,29.77,11,4,13,0.00
2012-6-3,85.3,80.3,71.1,71.8,62.5,55.6,83,56,38,29.99,29.88,15,6,18,0.00
2012-6-4,80.9,77.4,72.9,73.9,70.0,67.4,89,78,67,29.89,29.72,18,5,21,0.18
2012-6-5,76.2,71.7,68.4,70.6,66.9,63.2,89,85,77,29.86,29.69,13,4,17,0.00
2012-6-6,73.9,70.7,68.4,70.8,67.4,65.2,97,90,75,29.97,29.80,17,6,24,0.99
2012-6-7,77.6,72.0,66.2,66.7,64.1,58.4,92,77,55,30.03,29.94,15,6,21,0.00
2012-6-8,78.5,74.5,69.9,67.8,64.9,59.7,90,73,54,30.05,29.97,18,6,19,0.00
2012-6-9,79.2,74.9,67.1,69.7,67.8,64.4,96,79,64,30.10,30.01,15,5,16,0.00
2012-6-10,79.7,77.6,75.2,75.5,72.6,67.5,95,85,72,30.18,30.01,15,8,19,0.19
2012-6-11,81.6,75.0,68.9,76.1,72.1,67.5,98,91,82,30.20,30.06,17,6,27,1.91
2012-6-12,81.6,77.1,72.6,76.2,73.8,71.1,96,90,79,30.06,29.88,14,4,19,0.09
2012-6-13,77.0,75.1,71.7,74.8,72.1,70.5,97,90,85,29.95,29.88,5,2,9,0.15
2012-6-14,83.4,76.0,70.5,71.7,69.0,60.5,96,80,47,30.05,29.93,16,6,19,0.01
2012-6-15,80.1,76.3,71.7,68.5,64.6,58.4,86,68,50,30.14,30.09,19,9,22,0.00
2012-6-16,79.4,72.9,67.9,67.7,63.8,54.7,92,74,46,30.20,30.10,17,6,20,0.00
2012-6-17,76.7,70.6,67.7,67.4,66.2,62.4,96,87,62,30.15,30.09,12,3,14,0.00
2012-6-22,82.0,80.2,78.1,74.2,70.6,64.8,86,73,60,29.96,29.90,11,4,15,0.00
2012-6-23,85.1,81.2,76.4,77.5,75.4,72.9,95,83,68,30.00,29.89,11,3,15,0.00
2012-6-24,86.3,80.7,75.4,77.5,75.3,72.5,97,84,66,30.00,29.90,13,4,20,0.00
2012-6-25,80.6,78.2,75.6,75.5,73.7,71.1,97,86,79,29.92,29.67,19,6,23,0.35
2012-6-26,76.5,72.8,66.3,75.9,69.9,61.9,98,91,73,29.78,29.67,20,8,29,0.37
2012-6-27,83.3,74.2,65.2,68.3,60.7,55.6,94,65,41,29.98,29.77,21,8,24,0.00
2012-6-28,87.7,78.5,67.4,72.4,67.5,58.0,98,72,38,30.06,29.97,10,3,14,0.01
2012-6-29,91.3,83.4,77.5,79.3,74.8,69.3,92,76,57,29.97,29.80,10,3,13,0.00
2012-6-30,89.3,83.4,79.7,80.8,78.4,75.8,93,85,71,29.91,29.82,10,3,13,0.00
2012-7-1,90.2,83.6,75.1,82.4,77.6,66.5,95,83,58,30.09,29.89,28,4,31,0.01
2012-7-2,87.5,79.0,74.1,74.5,70.8,67.8,88,77,63,30.08,29.99,14,4,16,0.00
2012-7-7,84.1,84.0,83.9,78.7,77.9,77.2,84,82,80,30.04,29.99,9,3,15,0.00
2012-7-8,90.5,83.5,79.6,79.2,76.5,74.1,87,80,64,30.06,30.03,10,4,14,0.00
2012-7-12,84.9,82.5,77.7,77.4,75.9,73.0,93,81,73,30.11,30.03,16,6,21,0.54
2012-7-13,85.9,82.5,77.1,78.0,76.5,74.6,94,82,71,30.15,30.06,15,6,19,0.03
2012-7-14,85.4,82.4,78.2,77.3,75.6,74.0,90,80,70,30.19,30.10,16,5,19,0.14
2012-7-15,85.1,80.5,75.7,77.5,74.9,73.2,95,84,69,30.18,30.09,16,4,20,0.04
2012-7-16,87.7,81.5,74.9,77.3,75.0,73.2,97,81,63,30.11,29.96,10,2,13,0.28
2012-7-17,88.7,82.9,78.3,76.9,75.3,72.5,92,78,64,30.00,29.94,10,2,14,0.00
2012-7-18,87.0,81.9,76.6,78.2,76.2,73.1,97,84,67,30.06,29.96,15,3,17,0.03
2012-7-19,89.4,82.8,78.1,78.4,75.8,73.4,89,80,65,30.10,30.01,18,5,23,0.00
2012-7-20,89.1,82.4,78.1,79.6,75.1,72.5,89,79,62,30.06,29.97,18,6,25,0.00
2012-7-21,88.6,83.3,77.7,78.3,74.8,71.2,86,76,66,30.12,30.03,14,4,18,0.00
2012-7-22,88.9,84.7,81.3,80.1,78.0,75.7,90,81,72,30.19,30.08,12,4,16,0.00
2012-7-23,87.7,84.0,77.7,78.9,76.9,73.4,94,79,67,30.20,30.10,11,3,16,0.00
2012-7-24,90.1,84.1,73.1,81.0,76.9,71.0,95,79,62,30.10,29.91,25,6,33,0.18
2012-7-25,91.0,83.4,73.2,80.5,77.5,71.7,95,83,65,29.98,29.89,13,4,16,0.00
2012-7-26,91.5,85.9,82.1,81.1,79.3,76.5,89,81,65,29.95,29.88,15,4,23,0.00
2012-7-27,91.6,83.8,75.9,81.6,77.6,71.8,94,82,68,29.98,29.90,20,5,33,0.09
2012-7-28,88.6,83.9,79.4,81.3,78.2,74.0,92,83,76,30.03,29.93,15,4,22,0.03
2012-7-29,90.5,82.7,76.3,82.0,77.3,71.6,95,84,71,30.00,29.91,19,3,27,0.18
2012-7-30,82.1,77.4,70.2,77.2,74.7,68.4,97,91,80,29.99,29.89,16,3,32,1.54
2012-7-31,86.0,77.0,70.7,79.9,74.1,69.8,98,91,78,29.98,29.89,12,2,16,0.76
2012-8-1,86.8,78.6,75.5,77.3,75.6,74.2,98,91,69,29.95,29.88,11,2,11,0.01
2012-8-7,82.6,79.3,76.1,78.0,75.2,72.7,94,87,81,30.02,29.98,9,3,14,0.43
2012-8-8,83.2,78.0,74.1,76.6,75.0,73.2,97,91,76,30.04,29.95,9,2,11,0.40
2012-8-9,86.8,80.1,73.1,79.0,76.1,71.2,98,88,69,30.00,29.88,16,3,25,0.35
2012-8-10,87.7,81.2,73.0,78.5,75.6,71.2,97,84,69,29.94,29.87,18,5,23,0.54
2012-8-11,86.6,79.8,73.2,78.5,74.7,70.7,97,85,70,29.98,29.88,17,4,20,0.67
2012-8-12,87.3,82.0,76.5,78.4,76.4,73.4,94,84,68,30.01,29.93,13,4,18,0.00
2012-8-13,89.3,82.4,76.3,78.2,75.1,69.4,97,80,53,30.05,29.96,10,2,13,0.00
2012-8-14,90.9,83.5,76.0,78.2,75.2,71.0,93,77,54,30.01,29.90,17,4,17,0.00
2012-8-15,91.2,83.6,78.2,79.5,76.3,72.5,89,79,55,29.99,29.90,12,4,15,0.00
2012-8-16,80.2,78.5,77.4,74.4,73.0,71.9,88,83,77,29.99,29.96,5,1,8,0.00
2012-8-17,87.9,82.2,74.0,78.8,74.8,71.4,97,79,66,29.97,29.86,13,3,18,0.02
2012-8-18,89.4,81.5,75.9,79.7,75.7,73.0,93,83,60,29.91,29.82,11,3,13,0.00
2012-8-19,85.9,80.6,74.0,79.7,76.2,71.3,95,87,74,29.91,29.84,22,2,28,0.37
2012-8-20,84.4,79.0,76.1,76.1,73.8,71.6,94,85,68,29.96,29.86,10,4,16,0.01
2012-8-21,81.5,76.3,73.6,73.9,72.7,71.7,95,89,74,30.02,29.93,6,1,8,0.02
2012-8-26,82.9,80.3,77.0,75.2,73.0,70.4,93,79,69,30.08,30.03,13,5,16,0.01
2012-8-27,84.5,79.7,76.5,78.7,76.3,74.4,96,90,79,30.06,29.98,19,7,21,0.00
2012-8-28,81.3,77.8,74.7,79.1,76.3,73.4,97,95,89,30.02,29.95,9,3,15,1.97
2012-8-29,85.8,79.6,73.0,79.3,76.2,71.5,97,90,77,30.10,29.93,15,3,21,1.29
2012-8-30,80.7,76.9,72.8,76.4,74.3,71.7,98,92,83,30.16,29.95,8,2,10,0.12
2012-8-31,85.3,80.1,74.2,77.5,75.6,73.6,98,87,74,30.23,30.13,10,2,11,0.01
2012-9-1,89.0,82.3,76.2,80.8,77.6,75.3,98,86,73,30.17,30.05,10,2,13,0.00
2012-9-2,88.4,83.1,77.5,80.7,78.0,75.2,94,85,72,30.07,29.96,13,3,14,0.00
2012-9-3,85.8,82.2,79.2,78.3,76.2,73.1,91,82,73,30.05,29.98,13,4,17,0.00
2012-9-4,84.2,81.5,78.7,77.7,75.4,72.9,88,82,75,30.01,29.93,15,6,17,0.00
2012-9-5,85.2,82.4,79.1,77.5,76.4,74.4,89,82,73,29.99,29.91,12,4,16,0.00
2012-9-6,88.6,82.6,76.6,77.8,76.0,72.7,95,81,61,30.00,29.90,11,3,12,0.00
2012-9-7,89.0,82.2,77.7,78.7,76.4,74.0,89,83,65,29.96,29.86,9,3,14,0.05
2012-9-8,82.2,80.4,78.8,78.2,76.5,75.4,90,88,86,29.87,29.84,12,3,12,0.00
2012-9-11,80.1,79.2,78.2,58.6,57.1,55.2,51,47,43,30.25,30.24,15,10,19,0.00
2012-9-15,79.8,76.2,74.1,72.6,72.2,71.7,94,88,78,30.10,30.08,9,2,11,0.01
2012-9-16,78.8,73.0,70.4,74.1,71.4,69.5,98,95,83,30.12,30.07,6,1,7,0.00
2012-9-17,81.9,79.1,70.8,75.8,73.5,69.9,97,83,75,30.06,29.93,22,8,24,0.03
2012-9-18,82.6,80.3,78.4,77.2,75.7,74.3,91,86,83,29.93,29.82,18,9,23,0.15
2012-9-19,77.4,72.0,69.7,69.8,67.1,65.3,87,85,77,30.08,30.00,16,8,17,0.00
2012-9-20,77.7,71.6,66.1,70.5,67.0,63.4,92,86,75,30.11,30.02,12,4,14,0.00
2012-9-21,78.9,73.6,67.3,69.6,67.4,65.4,95,82,64,30.08,30.01,12,3,12,0.00
2012-9-22,82.1,75.4,68.7,72.1,69.7,66.9,95,83,67,30.06,29.97,11,2,13,0.00
2012-9-23,76.3,73.2,65.6,73.4,70.1,63.5,94,90,87,30.08,29.99,6,1,6,0.00
2012-9-24,77.8,69.9,63.3,65.7,62.4,58.3,96,79,55,30.16,30.06,20,5,22,0.01
2012-9-25,77.5,70.6,63.2,66.8,62.6,55.4,93,77,52,30.22,30.14,14,4,18,0.00
2012-9-26,80.7,73.8,64.5,72.7,68.3,62.7,95,84,71,30.20,30.13,15,5,19,0.00
2012-9-27,82.0,75.4,69.7,72.2,69.3,67.2,97,82,62,30.19,30.09,17,4,19,0.00
2012-9-28,85.0,75.5,68.4,72.4,69.9,65.5,96,84,53,30.11,30.00,9,2,13,0.00
2012-9-29,83.8,75.6,69.5,72.4,70.6,67.9,98,85,61,30.02,29.85,9,2,18,0.02
2012-9-30,78.6,74.6,70.5,74.0,70.7,65.5,95,88,78,29.91,29.82,9,2,10,0.01
2012-10-1,84.3,78.3,73.6,78.8,75.3,72.3,97,91,82,29.83,29.77,12,3,17,0.00
2012-10-3,78.7,76.2,74.0,73.1,71.6,69.7,93,86,80,30.19,30.12,8,1,10,0.02
2012-10-4,80.6,75.0,70.4,73.8,71.8,69.4,97,90,79,30.23,30.16,8,2,13,0.00
2012-10-5,81.1,75.0,71.1,72.8,69.9,64.7,96,85,60,30.17,30.02,13,4,16,0.00
2012-10-6,82.8,75.9,69.8,73.6,71.4,68.7,97,87,68,30.02,29.89,10,2,12,0.01
2012-10-7,84.2,78.0,73.4,75.7,73.7,72.1,98,87,68,30.00,29.92,10,2,12,0.00
2012-10-8,78.6,62.9,55.9,75.3,61.5,54.8,98,95,88,30.09,29.99,16,8,22,1.22
2012-10-9,66.0,57.9,54.0,58.3,55.1,52.8,98,91,75,30.14,30.06,14,5,17,0.00
2012-10-10,73.1,64.6,54.7,63.0,59.6,53.7,97,85,64,30.15,30.02,12,3,14,0.01
2012-10-11,71.6,64.3,58.6,62.1,57.7,52.7,98,80,62,30.26,30.12,15,5,18,0.00
2012-10-12,76.4,66.8,57.7,64.6,60.8,56.9,98,82,56,30.24,30.14,8,1,11,0.01
2012-10-13,73.8,67.4,62.6,65.7,61.0,57.8,95,80,66,30.33,30.22,19,8,24,0.00
2012-10-14,78.6,68.1,63.0,67.4,63.2,59.5,95,85,63,30.26,30.05,16,6,19,0.00
2012-10-15,79.2,72.0,66.1,73.8,69.2,62.1,98,91,77,30.05,29.77,10,1,14,0.15
2012-10-16,71.1,63.5,57.4,62.0,53.6,47.2,91,72,45,29.96,29.84,17,4,23,0.00
2012-10-17,72.3,64.6,57.9,62.3,59.2,56.0,96,83,67,29.99,29.89,11,2,14,0.00
2012-10-18,76.9,70.4,63.2,71.1,67.3,61.8,98,90,77,29.90,29.79,9,2,13,0.06
2012-10-19,75.6,71.8,67.0,72.5,59.4,44.8,95,69,35,29.86,29.75,15,3,18,0.02
2012-10-20,73.7,66.1,56.6,62.7,52.3,44.6,94,63,39,29.95,29.82,10,3,14,0.00
2012-10-21,72.0,62.3,54.7,58.0,53.4,47.5,95,75,48,30.15,29.94,12,4,18,0.00
2012-10-22,72.6,61.1,52.9,56.3,52.3,45.2,96,77,39,30.23,30.13,12,3,14,0.01
2012-10-26,76.4,71.2,68.7,65.2,64.2,63.4,86,79,68,29.82,29.76,21,11,24,0.00
2012-10-27,68.9,67.7,65.6,64.7,62.9,58.2,94,85,74,29.75,29.54,26,11,29,0.12
2012-10-28,74.7,66.9,62.0,58.4,55.9,54.1,78,68,49,29.64,29.56,17,8,21,0.00
2012-10-29,63.8,56.7,50.4,55.0,42.9,38.0,79,61,44,29.69,29.55,22,11,26,0.00
2012-10-30,59.2,52.7,47.5,39.0,35.4,30.1,67,53,33,29.77,29.58,26,11,28,0.00
2012-10-31,66.6,55.9,47.7,47.2,34.8,25.2,71,47,21,29.85,29.75,20,9,25,0.00
2012-11-1,66.8,56.7,49.5,46.5,36.4,23.9,78,50,21,29.95,29.81,17,6,22,0.00
2012-11-2,72.9,57.7,43.3,56.5,42.8,29.2,91,59,39,30.02,29.87,10,2,16,0.00
2012-11-3,65.8,58.7,49.5,58.2,48.3,39.0,95,71,40,30.11,29.95,9,2,13,0.00
2012-11-4,73.9,65.9,59.9,65.9,61.7,58.0,96,87,72,30.04,29.89,14,2,21,0.28
2012-11-5,63.0,57.0,50.9,60.4,51.1,43.9,97,82,50,30.04,29.91,14,5,18,0.00
2012-11-6,55.1,50.9,44.3,49.9,46.1,41.4,94,84,71,30.01,29.86,19,7,21,0.07
2012-11-7,52.6,45.1,40.4,43.5,40.7,37.3,94,85,68,29.98,29.85,14,4,15,0.00
2012-11-8,63.1,49.2,41.2,44.7,41.0,34.4,95,77,35,30.15,29.98,15,4,17,0.00
2012-11-9,53.8,47.1,41.8,43.5,40.6,38.2,91,79,56,30.27,30.14,8,2,13,0.00
2012-11-11,69.6,63.3,59.2,61.3,60.0,58.1,97,89,75,30.37,30.34,7,3,12,0.00
2012-11-12,76.3,67.2,59.8,66.6,63.0,58.8,98,87,68,30.34,30.19,12,2,15,0.01
2012-11-13,75.5,63.2,53.4,67.3,60.2,51.4,97,90,73,30.27,30.14,18,4,20,0.33
2012-11-14,53.4,51.0,48.6,51.7,47.4,45.0,94,87,82,30.36,30.23,20,9,21,0.00
2012-11-15,51.5,49.1,45.9,49.5,47.4,44.0,97,94,88,30.25,30.15,19,9,25,0.16
2012-11-18,51.8,51.3,50.0,51.0,50.5,49.0,97,97,96,30.22,30.16,20,11,24,0.58
2012-11-19,56.7,53.6,51.9,52.3,51.3,50.5,97,92,85,30.20,30.14,18,10,23,0.00
2012-11-20,52.4,51.4,49.9,50.4,49.5,48.4,96,93,92,30.07,30.07,3,1,3,0.00
2012-11-21,62.9,53.6,45.8,51.2,46.5,40.8,97,79,46,30.12,30.04,19,4,20,0.01
2012-11-23,64.7,58.2,53.3,53.2,49.7,39.9,91,75,44,30.12,29.95,8,2,11,0.00
2012-11-24,60.7,52.9,41.8,50.1,42.1,36.8,88,68,42,30.09,29.94,12,4,15,0.00
2012-11-25,59.1,47.1,40.5,48.0,40.6,31.9,96,79,60,30.19,30.08,11,3,14,0.00
2012-11-26,56.5,43.6,40.1,48.1,41.6,37.6,98,94,49,30.26,30.14,5,0,7,0.01
2012-12-2,56.8,56.5,56.3,56.0,55.7,55.5,97,97,97,30.28,30.28,0,0,0,0.00
2012-12-3,71.7,60.7,52.0,65.3,58.7,51.4,98,93,74,30.34,30.25,5,1,7,0.01
2012-12-4,72.1,62.1,56.5,64.8,59.7,55.7,98,92,76,30.35,30.24,6,0,9,0.00
2012-12-5,71.5,60.0,50.5,61.0,55.9,49.8,99,87,64,30.24,30.10,7,1,9,0.01
2012-12-6,62.9,58.1,54.7,56.8,54.6,49.7,97,88,79,30.18,30.10,16,7,20,0.00
2012-12-7,61.8,55.8,51.8,57.2,52.7,48.7,96,89,82,30.10,29.98,13,5,17,0.00
2012-12-8,67.5,56.7,49.9,59.5,54.1,49.1,98,91,72,30.11,30.01,4,0,6,0.00
2012-12-9,62.9,55.3,53.1,62.0,54.5,52.3,98,97,97,30.13,30.07,1,0,2,0.01
2012-12-11,61.4,60.8,60.2,59.4,58.7,57.6,93,93,91,30.07,30.04,6,3,7,0.00
2012-12-12,60.2,54.3,47.7,57.6,52.8,46.6,97,95,89,30.17,30.05,15,6,18,0.59
2012-12-13,49.3,45.8,42.9,46.7,44.0,41.7,97,94,87,30.32,30.16,21,8,23,0.08
2012-12-14,59.4,49.2,43.6,47.0,44.1,41.1,95,83,56,30.37,30.21,14,5,17,0.00
2012-12-15,52.6,52.2,51.8,46.6,44.7,43.7,80,76,73,30.22,30.16,12,5,13,0.00
2012-12-23,51.3,50.6,49.4,46.3,45.3,44.4,83,82,80,30.15,30.13,2,0,4,0.00
2012-12-24,59.9,52.8,46.2,54.6,48.2,42.2,96,85,63,30.14,29.96,7,0,12,0.16
2012-12-25,58.0,55.5,50.5,55.9,54.2,49.7,98,96,91,30.07,29.91,12,4,15,0.25
2012-12-26,65.6,58.5,42.8,63.7,53.9,33.8,99,85,57,29.91,29.56,29,9,33,0.43
2012-12-27,53.3,44.1,38.2,41.2,36.7,32.9,96,76,59,30.08,29.85,17,6,24,0.00
2012-12-28,55.2,46.5,36.0,49.3,43.4,35.2,98,89,71,30.15,29.92,7,2,9,0.00
2012-12-29,62.2,52.4,42.8,61.8,47.8,33.9,99,85,66,30.08,29.68,20,8,32,1.12
2012-12-30,51.2,40.7,34.4,34.9,31.2,26.8,95,71,39,30.43,30.08,20,5,24,0.00
2012-12-31,57.4,43.5,30.5,46.9,38.1,29.5,98,83,53,30.43,30.21,6,1,8,0.00
2013-1-1,61.3,54.7,46.2,58.7,52.3,44.8,97,92,84,30.21,29.96,8,1,10,0.00